Time,TemperatureF,DewpointF,PressureIn,WindDirection,WindDirectionDegrees,WindSpeedMPH,WindSpeedGustMPH,Humidity,HourlyPrecipIn,Conditions,Clouds,dailyrainin,SoftwareType,DateUTC
2013-03-27 00:00:00,36.1,28.6,30.01,WNW,298,0.0,0.0,74,0.00,,---,0.34,VWS V14.01,2013-03-27 04:00:00,
2013-03-27 00:02:00,36.1,28.6,30.01,WNW,295,0.0,0.0,74,0.00,,---,0.00,VWS V14.01,2013-03-27 04:02:00,
2013-03-27 00:07:00,36.1,29.0,30.01,West,278,0.0,0.0,75,0.00,,---,0.00,VWS V14.01,2013-03-27 04:07:00,
2013-03-27 00:12:00,36.1,28.6,30.02,West,267,0.0,1.0,74,0.00,,---,0.00,VWS V14.01,2013-03-27 04:12:00,
2013-03-27 00:17:00,36.2,28.7,30.02,SW,236,0.0,4.0,74,0.00,,---,0.00,VWS V14.01,2013-03-27 04:17:00,
2013-03-27 00:22:00,36.1,29.0,30.02,West,265,0.0,1.0,75,0.00,,---,0.00,VWS V14.01,2013-03-27 04:22:00,
2013-03-27 00:27:00,36.0,28.9,30.02,WNW,287,2.0,2.0,75,0.00,,---,0.00,VWS V14.01,2013-03-27 04:27:00,
2013-03-27 00:33:00,36.0,28.9,30.02,WNW,295,0.0,0.0,75,0.00,,---,0.00,VWS V14.01,2013-03-27 04:33:00,
2013-03-27 00:38:00,36.0,28.9,30.02,West,281,0.0,0.0,75,0.00,,---,0.00,VWS V14.01,2013-03-27 04:38:00,
2013-03-27 00:43:00,35.9,28.8,30.02,NW,319,0.0,0.0,75,0.00,,---,0.00,VWS V14.01,2013-03-27 04:43:00,
2013-03-27 00:48:00,36.0,28.9,30.02,West,269,0.0,1.0,75,0.00,,---,0.00,VWS V14.01,2013-03-27 04:48:00,
2013-03-27 00:53:00,36.0,28.9,30.02,WNW,301,1.0,1.0,75,0.00,,---,0.00,VWS V14.01,2013-03-27 04:53:00,
2013-03-27 00:58:00,35.9,28.8,30.02,WNW,290,0.0,1.0,75,0.00,,---,0.00,VWS V14.01,2013-03-27 04:58:00,
2013-03-27 01:03:00,35.8,28.7,30.02,WNW,284,0.0,1.0,75,0.00,,---,0.00,VWS V14.01,2013-03-27 05:03:00,
2013-03-27 01:08:00,35.5,28.7,30.02,WNW,300,0.0,0.0,76,0.00,,---,0.00,VWS V14.01,2013-03-27 05:08:00,
2013-03-27 01:13:00,35.4,28.6,30.02,WNW,294,1.0,1.0,76,0.00,,---,0.00,VWS V14.01,2013-03-27 05:13:00,
2013-03-27 01:18:00,35.4,28.6,30.02,WNW,300,0.0,1.0,76,0.00,,---,0.00,VWS V14.01,2013-03-27 05:18:00,
2013-03-27 01:23:00,35.5,29.0,30.02,NW,307,0.0,1.0,77,0.00,,---,0.00,VWS V14.01,2013-03-27 05:23:00,
2013-03-27 01:28:00,35.5,28.7,30.02,WNW,296,0.0,0.0,76,0.00,,---,0.00,VWS V14.01,2013-03-27 05:28:00,
2013-03-27 01:34:00,35.4,28.6,30.02,WNW,295,2.0,2.0,76,0.00,,---,0.00,VWS V14.01,2013-03-27 05:34:00,
2013-03-27 01:39:00,35.4,28.6,30.02,NW,305,0.0,0.0,76,0.00,,---,0.00,VWS V14.01,2013-03-27 05:39:00,
2013-03-27 01:44:00,35.3,28.8,30.02,NW,304,0.0,1.0,77,0.00,,---,0.00,VWS V14.01,2013-03-27 05:44:00,
2013-03-27 01:49:00,35.3,28.8,30.02,WNW,284,1.0,2.0,77,0.00,,---,0.00,VWS V14.01,2013-03-27 05:49:00,
2013-03-27 01:54:00,35.3,28.8,30.02,West,281,1.0,2.0,77,0.00,,---,0.00,VWS V14.01,2013-03-27 05:54:00,
2013-03-27 01:59:00,35.5,29.0,30.02,WNW,288,1.0,2.0,77,0.00,,---,0.00,VWS V14.01,2013-03-27 05:59:00,
2013-03-27 02:04:00,35.6,28.8,30.02,WNW,290,0.0,2.0,76,0.00,,---,0.00,VWS V14.01,2013-03-27 06:04:00,
2013-03-27 02:09:00,35.6,28.8,30.02,West,277,0.0,1.0,76,0.00,,---,0.00,VWS V14.01,2013-03-27 06:09:00,
2013-03-27 02:14:00,35.5,28.7,30.02,WNW,287,1.0,1.0,76,0.00,,---,0.00,VWS V14.01,2013-03-27 06:14:00,
2013-03-27 02:19:00,35.5,28.7,30.02,WNW,301,1.0,2.0,76,0.00,,---,0.00,VWS V14.01,2013-03-27 06:19:00,
2013-03-27 02:24:00,35.4,28.6,30.02,WNW,287,1.0,1.0,76,0.00,,---,0.00,VWS V14.01,2013-03-27 06:24:00,
2013-03-27 02:32:00,35.5,28.7,30.02,WNW,300,0.0,0.0,76,0.00,,---,0.00,VWS V14.01,2013-03-27 06:32:00,
2013-03-27 02:37:00,35.4,28.6,30.02,WSW,257,1.0,1.0,76,0.00,,---,0.00,VWS V14.01,2013-03-27 06:37:00,
2013-03-27 02:42:00,35.2,28.4,30.01,NW,326,1.0,1.0,76,0.00,,---,0.00,VWS V14.01,2013-03-27 06:42:00,
2013-03-27 02:47:00,35.1,28.3,30.02,NW,308,0.0,0.0,76,0.00,,---,0.00,VWS V14.01,2013-03-27 06:47:00,
2013-03-27 02:52:00,35.0,28.2,30.01,WNW,287,0.0,0.0,76,0.00,,---,0.00,VWS V14.01,2013-03-27 06:52:00,
2013-03-27 02:57:00,34.9,28.4,30.02,NNW,328,0.0,3.0,77,0.00,,---,0.00,VWS V14.01,2013-03-27 06:57:00,
2013-03-27 03:02:00,35.0,28.5,30.02,NW,311,0.0,1.0,77,0.00,,---,0.00,VWS V14.01,2013-03-27 07:02:00,
2013-03-27 03:07:00,34.9,28.4,30.02,NW,304,0.0,1.0,77,0.00,,---,0.00,VWS V14.01,2013-03-27 07:07:00,
2013-03-27 03:12:00,34.7,28.2,30.02,WSW,253,0.0,0.0,77,0.00,,---,0.00,VWS V14.01,2013-03-27 07:12:00,
2013-03-27 03:17:00,34.6,28.1,30.02,NNW,328,1.0,1.0,77,0.00,,---,0.00,VWS V14.01,2013-03-27 07:17:00,
2013-03-27 03:23:00,34.5,28.4,30.02,NW,307,0.0,0.0,78,0.00,,---,0.00,VWS V14.01,2013-03-27 07:23:00,
2013-03-27 03:28:00,34.3,28.2,30.02,WNW,300,0.0,0.0,78,0.00,,---,0.00,VWS V14.01,2013-03-27 07:28:00,
2013-03-27 03:33:00,34.1,28.0,30.01,NNW,339,0.0,1.0,78,0.00,,---,0.00,VWS V14.01,2013-03-27 07:33:00,
2013-03-27 03:38:00,33.9,27.8,30.01,NW,311,0.0,0.0,78,0.00,,---,0.00,VWS V14.01,2013-03-27 07:38:00,
2013-03-27 03:43:00,33.8,28.0,30.01,WNW,294,0.0,0.0,79,0.00,,---,0.00,VWS V14.01,2013-03-27 07:43:00,
2013-03-27 03:48:00,33.9,28.1,30.02,NNW,347,0.0,0.0,79,0.00,,---,0.00,VWS V14.01,2013-03-27 07:48:00,
2013-03-27 03:53:00,34.0,28.2,30.01,NW,319,0.0,0.0,79,0.00,,---,0.00,VWS V14.01,2013-03-27 07:53:00,
2013-03-27 03:58:00,34.0,28.2,30.01,NW,313,0.0,1.0,79,0.00,,---,0.00,VWS V14.01,2013-03-27 07:58:00,
2013-03-27 04:03:00,34.2,28.4,30.01,WNW,302,0.0,0.0,79,0.00,,---,0.00,VWS V14.01,2013-03-27 08:03:00,
2013-03-27 04:08:00,34.3,28.2,30.01,WSW,250,0.0,0.0,78,0.00,,---,0.00,VWS V14.01,2013-03-27 08:08:00,
2013-03-27 04:13:00,34.3,28.2,30.01,NNW,330,0.0,1.0,78,0.00,,---,0.00,VWS V14.01,2013-03-27 08:13:00,
2013-03-27 04:18:00,34.1,28.0,30.01,NW,319,0.0,2.0,78,0.00,,---,0.00,VWS V14.01,2013-03-27 08:18:00,
2013-03-27 04:23:00,34.0,27.9,30.01,NW,321,0.0,1.0,78,0.00,,---,0.00,VWS V14.01,2013-03-27 08:23:00,
2013-03-27 04:28:00,33.9,28.1,30.01,WNW,302,0.0,0.0,79,0.00,,---,0.00,VWS V14.01,2013-03-27 08:28:00,
2013-03-27 04:33:00,33.7,27.9,30.01,North,1,0.0,0.0,79,0.00,,---,0.00,VWS V14.01,2013-03-27 08:33:00,
2013-03-27 04:38:00,33.7,27.9,30.01,WNW,290,0.0,0.0,79,0.00,,---,0.00,VWS V14.01,2013-03-27 08:38:00,
2013-03-27 04:43:00,33.6,27.8,30.01,WSW,253,0.0,0.0,79,0.00,,---,0.00,VWS V14.01,2013-03-27 08:43:00,
2013-03-27 04:48:00,33.5,28.0,30.02,WSW,253,0.0,1.0,80,0.00,,---,0.00,VWS V14.01,2013-03-27 08:48:00,
2013-03-27 04:53:00,33.6,28.1,30.02,WNW,301,0.0,1.0,80,0.00,,---,0.00,VWS V14.01,2013-03-27 08:53:00,
2013-03-27 04:58:00,33.6,28.1,30.02,WNW,300,0.0,0.0,80,0.00,,---,0.00,VWS V14.01,2013-03-27 08:58:00,
2013-03-27 05:03:00,33.8,28.3,30.02,WNW,300,0.0,0.0,80,0.00,,---,0.00,VWS V14.01,2013-03-27 09:03:00,
2013-03-27 05:08:00,33.7,28.2,30.02,WNW,300,0.0,1.0,80,0.00,,---,0.00,VWS V14.01,2013-03-27 09:08:00,
2013-03-27 05:13:00,33.8,28.3,30.02,WNW,302,0.0,0.0,80,0.00,,---,0.00,VWS V14.01,2013-03-27 09:13:00,
2013-03-27 05:18:00,33.8,28.3,30.02,WNW,300,0.0,0.0,80,0.00,,---,0.00,VWS V14.01,2013-03-27 09:18:00,
2013-03-27 05:23:00,33.7,28.2,30.02,WNW,302,0.0,0.0,80,0.00,,---,0.00,VWS V14.01,2013-03-27 09:23:00,
2013-03-27 05:28:00,33.7,28.2,30.02,WNW,302,0.0,0.0,80,0.00,,---,0.00,VWS V14.01,2013-03-27 09:28:00,
2013-03-27 05:33:00,33.8,28.3,30.03,WNW,300,0.0,0.0,80,0.00,,---,0.00,VWS V14.01,2013-03-27 09:33:00,
2013-03-27 05:38:00,33.8,28.3,30.03,WNW,301,0.0,0.0,80,0.00,,---,0.00,VWS V14.01,2013-03-27 09:38:00,
2013-03-27 05:43:00,33.9,28.4,30.03,WNW,301,0.0,0.0,80,0.00,,---,0.00,VWS V14.01,2013-03-27 09:43:00,
2013-03-27 05:48:00,33.9,28.4,30.03,North,354,0.0,1.0,80,0.00,,---,0.00,VWS V14.01,2013-03-27 09:48:00,
2013-03-27 05:53:00,33.9,28.4,30.03,North,352,0.0,0.0,80,0.00,,---,0.00,VWS V14.01,2013-03-27 09:53:00,
2013-03-27 05:58:00,33.8,28.0,30.03,North,352,0.0,0.0,79,0.00,,---,0.00,VWS V14.01,2013-03-27 09:58:00,
2013-03-27 06:03:00,33.8,28.3,30.03,North,352,0.0,0.0,80,0.00,,---,0.00,VWS V14.01,2013-03-27 10:03:00,
2013-03-27 06:08:00,33.8,28.0,30.04,North,353,0.0,0.0,79,0.00,,---,0.00,VWS V14.01,2013-03-27 10:08:00,
2013-03-27 06:13:00,33.8,28.0,30.04,North,352,0.0,0.0,79,0.00,,---,0.00,VWS V14.01,2013-03-27 10:13:00,
2013-03-27 06:18:00,33.9,28.1,30.04,North,353,0.0,0.0,79,0.00,,---,0.00,VWS V14.01,2013-03-27 10:18:00,
2013-03-27 06:23:00,33.9,28.1,30.04,NW,321,0.0,0.0,79,0.00,,---,0.00,VWS V14.01,2013-03-27 10:23:00,
2013-03-27 06:28:00,34.0,28.2,30.04,West,276,1.0,2.0,79,0.00,,---,0.00,VWS V14.01,2013-03-27 10:28:00,
2013-03-27 06:33:00,34.0,27.9,30.04,WNW,283,0.0,0.0,78,0.00,,---,0.00,VWS V14.01,2013-03-27 10:33:00,
2013-03-27 06:38:00,34.0,28.2,30.04,West,280,0.0,1.0,79,0.00,,---,0.00,VWS V14.01,2013-03-27 10:38:00,
2013-03-27 06:43:00,34.0,27.9,30.04,WNW,300,0.0,1.0,78,0.00,,---,0.00,VWS V14.01,2013-03-27 10:43:00,
2013-03-27 06:48:00,34.0,27.9,30.04,West,264,0.0,1.0,78,0.00,,---,0.00,VWS V14.01,2013-03-27 10:48:00,
2013-03-27 06:53:00,34.0,27.9,30.04,West,277,0.0,0.0,78,0.00,,---,0.00,VWS V14.01,2013-03-27 10:53:00,
2013-03-27 06:58:00,34.0,27.6,30.04,WNW,285,0.0,1.0,77,0.00,,---,0.00,VWS V14.01,2013-03-27 10:58:00,
2013-03-27 07:03:00,34.0,27.9,30.05,West,267,0.0,1.0,78,0.00,,---,0.00,VWS V14.01,2013-03-27 11:03:00,
2013-03-27 07:08:00,33.9,27.8,30.05,WNW,285,0.0,0.0,78,0.00,,---,0.00,VWS V14.01,2013-03-27 11:08:00,
2013-03-27 07:13:00,33.9,27.5,30.05,West,263,0.0,1.0,77,0.00,,---,0.00,VWS V14.01,2013-03-27 11:13:00,
2013-03-27 07:19:00,33.9,27.5,30.05,NW,319,1.0,1.0,77,0.00,,---,0.00,VWS V14.01,2013-03-27 11:19:00,
2013-03-27 07:24:00,34.0,27.9,30.05,WSW,257,0.0,1.0,78,0.00,,---,0.00,VWS V14.01,2013-03-27 11:24:00,
2013-03-27 07:29:00,34.1,28.0,30.05,West,267,0.0,1.0,78,0.00,,---,0.00,VWS V14.01,2013-03-27 11:29:00,
2013-03-27 07:34:00,34.2,27.8,30.06,NNE,22,1.0,1.0,77,0.00,,---,0.00,VWS V14.01,2013-03-27 11:34:00,
2013-03-27 07:39:00,34.4,28.0,30.06,WSW,246,0.0,0.0,77,0.00,,---,0.00,VWS V14.01,2013-03-27 11:39:00,
2013-03-27 07:44:00,34.7,27.9,30.06,WNW,302,0.0,1.0,76,0.00,,---,0.00,VWS V14.01,2013-03-27 11:44:00,
2013-03-27 07:49:00,35.0,28.2,30.06,WNW,284,0.0,1.0,76,0.00,,---,0.00,VWS V14.01,2013-03-27 11:49:00,
2013-03-27 07:54:00,35.3,28.2,30.06,WNW,284,1.0,1.0,75,0.00,,---,0.00,VWS V14.01,2013-03-27 11:54:00,
2013-03-27 07:59:00,35.7,28.6,30.06,NNE,15,0.0,2.0,75,0.00,,---,0.00,VWS V14.01,2013-03-27 11:59:00,
2013-03-27 08:04:00,36.0,28.9,30.06,NW,311,0.0,0.0,75,0.00,,---,0.00,VWS V14.01,2013-03-27 12:04:00,
2013-03-27 08:09:00,36.1,28.6,30.07,NNW,329,2.0,2.0,74,0.00,,---,0.00,VWS V14.01,2013-03-27 12:09:00,
2013-03-27 08:14:00,36.0,28.2,30.07,North,352,1.0,1.0,73,0.00,,---,0.00,VWS V14.01,2013-03-27 12:14:00,
2013-03-27 08:19:00,35.9,28.4,30.07,North,354,0.0,1.0,74,0.00,,---,0.00,VWS V14.01,2013-03-27 12:19:00,
2013-03-27 08:24:00,35.8,28.3,30.07,North,354,0.0,1.0,74,0.00,,---,0.00,VWS V14.01,2013-03-27 12:24:00,
2013-03-27 08:29:00,35.8,28.3,30.07,NW,316,0.0,1.0,74,0.00,,---,0.00,VWS V14.01,2013-03-27 12:29:00,
2013-03-27 08:34:00,36.0,28.5,30.07,NNE,29,0.0,2.0,74,0.00,,---,0.00,VWS V14.01,2013-03-27 12:34:00,
2013-03-27 08:39:00,36.1,28.6,30.07,North,358,0.0,0.0,74,0.00,,---,0.00,VWS V14.01,2013-03-27 12:39:00,
2013-03-27 08:44:00,36.3,28.8,30.07,NW,311,0.0,2.0,74,0.00,,---,0.00,VWS V14.01,2013-03-27 12:44:00,
2013-03-27 08:50:00,36.7,29.2,30.07,NNW,338,0.0,1.0,74,0.00,,---,0.00,VWS V14.01,2013-03-27 12:50:00,
2013-03-27 08:55:00,37.3,29.5,30.08,North,11,1.0,2.0,73,0.00,,---,0.00,VWS V14.01,2013-03-27 12:55:00,
2013-03-27 09:00:00,37.7,29.2,30.08,North,1,0.0,1.0,71,0.00,,---,0.00,VWS V14.01,2013-03-27 13:00:00,
2013-03-27 09:05:00,37.8,29.3,30.08,WSW,240,1.0,2.0,71,0.00,,---,0.00,VWS V14.01,2013-03-27 13:05:00,
2013-03-27 09:10:00,37.8,28.9,30.08,NNE,22,0.0,1.0,70,0.00,,---,0.00,VWS V14.01,2013-03-27 13:10:00,
2013-03-27 09:15:00,37.5,29.0,30.08,SSW,195,0.0,1.0,71,0.00,,---,0.00,VWS V14.01,2013-03-27 13:15:00,
2013-03-27 09:20:00,37.4,28.9,30.08,West,277,1.0,1.0,71,0.00,,---,0.00,VWS V14.01,2013-03-27 13:20:00,
2013-03-27 09:25:00,37.5,29.0,30.08,North,360,1.0,3.0,71,0.00,,---,0.00,VWS V14.01,2013-03-27 13:25:00,
2013-03-27 09:31:00,37.5,29.0,30.08,North,11,2.0,2.0,71,0.00,,---,0.00,VWS V14.01,2013-03-27 13:31:00,
2013-03-27 09:36:00,37.5,28.6,30.08,WNW,298,0.0,1.0,70,0.00,,---,0.00,VWS V14.01,2013-03-27 13:36:00,
2013-03-27 09:41:00,37.4,28.9,30.08,West,277,0.0,1.0,71,0.00,,---,0.00,VWS V14.01,2013-03-27 13:41:00,
2013-03-27 09:46:00,37.2,28.7,30.08,WSW,244,2.0,3.0,71,0.00,,---,0.00,VWS V14.01,2013-03-27 13:46:00,
2013-03-27 09:51:00,37.1,29.3,30.08,WNW,302,0.0,0.0,73,0.00,,---,0.00,VWS V14.01,2013-03-27 13:51:00,
2013-03-27 09:57:00,37.3,29.1,30.08,SSW,205,1.0,1.0,72,0.00,,---,0.00,VWS V14.01,2013-03-27 13:57:00,
2013-03-27 10:02:00,37.8,29.6,30.08,ENE,75,0.0,0.0,72,0.00,,---,0.00,VWS V14.01,2013-03-27 14:02:00,
2013-03-27 10:07:00,38.6,29.7,30.08,WNW,284,0.0,1.0,70,0.00,,---,0.00,VWS V14.01,2013-03-27 14:07:00,
2013-03-27 10:12:00,39.1,30.2,30.08,NE,42,0.0,2.0,70,0.00,,---,0.00,VWS V14.01,2013-03-27 14:12:00,
2013-03-27 10:17:00,39.0,30.1,30.08,NW,326,3.0,4.0,70,0.00,,---,0.00,VWS V14.01,2013-03-27 14:17:00,
2013-03-27 10:22:00,39.0,29.7,30.08,SE,127,1.0,4.0,69,0.00,,---,0.00,VWS V14.01,2013-03-27 14:22:00,
2013-03-27 10:27:00,39.3,30.4,30.08,North,351,0.0,1.0,70,0.00,,---,0.00,VWS V14.01,2013-03-27 14:27:00,
2013-03-27 10:32:00,39.6,29.9,30.08,SW,221,1.0,2.0,68,0.00,,---,0.00,VWS V14.01,2013-03-27 14:32:00,
2013-03-27 10:37:00,39.8,30.1,30.07,WSW,256,0.0,2.0,68,0.00,,---,0.00,VWS V14.01,2013-03-27 14:37:00,
2013-03-27 10:42:00,40.2,30.5,30.07,WNW,295,1.0,4.0,68,0.00,,---,0.00,VWS V14.01,2013-03-27 14:42:00,
2013-03-27 10:47:00,40.3,29.9,30.07,North,360,1.0,1.0,66,0.00,,---,0.00,VWS V14.01,2013-03-27 14:47:00,
2013-03-27 10:52:00,40.2,30.1,30.07,WNW,285,0.0,2.0,67,0.00,,---,0.00,VWS V14.01,2013-03-27 14:52:00,
2013-03-27 10:57:00,41.1,31.0,30.08,WNW,298,3.0,3.0,67,0.00,,---,0.00,VWS V14.01,2013-03-27 14:57:00,
2013-03-27 11:02:00,41.8,30.9,30.08,NW,315,0.0,2.0,65,0.00,,---,0.00,VWS V14.01,2013-03-27 15:02:00,
2013-03-27 11:07:00,42.0,30.3,30.07,NW,323,2.0,2.0,63,0.00,,---,0.00,VWS V14.01,2013-03-27 15:07:00,
2013-03-27 11:12:00,42.4,30.3,30.07,NW,322,1.0,1.0,62,0.00,,---,0.00,VWS V14.01,2013-03-27 15:12:00,
2013-03-27 11:18:00,42.3,29.8,30.07,NNW,327,1.0,2.0,61,0.00,,---,0.00,VWS V14.01,2013-03-27 15:18:00,
2013-03-27 11:23:00,42.0,29.5,30.07,NNE,27,1.0,1.0,61,0.00,,---,0.00,VWS V14.01,2013-03-27 15:23:00,
2013-03-27 11:28:00,41.8,29.8,30.08,WNW,295,3.0,3.0,62,0.00,,---,0.00,VWS V14.01,2013-03-27 15:28:00,
2013-03-27 11:33:00,41.7,29.7,30.07,NE,39,4.0,6.0,62,0.00,,---,0.00,VWS V14.01,2013-03-27 15:33:00,
2013-03-27 11:38:00,42.0,29.9,30.07,NE,55,2.0,2.0,62,0.00,,---,0.00,VWS V14.01,2013-03-27 15:38:00,
2013-03-27 11:43:00,42.2,29.7,30.07,NE,34,2.0,4.0,61,0.00,,---,0.00,VWS V14.01,2013-03-27 15:43:00,
2013-03-27 11:48:00,42.2,29.7,30.07,West,264,0.0,4.0,61,0.00,,---,0.00,VWS V14.01,2013-03-27 15:48:00,
2013-03-27 11:53:00,41.9,29.5,30.07,West,264,4.0,5.0,61,0.00,,---,0.00,VWS V14.01,2013-03-27 15:53:00,
2013-03-27 11:58:00,41.6,29.2,30.07,WSW,246,1.0,2.0,61,0.00,,---,0.00,VWS V14.01,2013-03-27 15:58:00,
2013-03-27 12:03:00,41.6,29.6,30.07,North,5,2.0,2.0,62,0.00,,---,0.00,VWS V14.01,2013-03-27 16:03:00,
2013-03-27 12:08:00,41.8,29.4,30.07,NNE,32,0.0,1.0,61,0.00,,---,0.00,VWS V14.01,2013-03-27 16:08:00,
2013-03-27 12:13:00,41.7,29.7,30.07,ENE,69,4.0,6.0,62,0.00,,---,0.00,VWS V14.01,2013-03-27 16:13:00,
2013-03-27 12:18:00,41.9,30.6,30.07,ESE,107,0.0,1.0,64,0.00,,---,0.00,VWS V14.01,2013-03-27 16:18:00,
2013-03-27 12:23:00,43.0,29.7,30.06,North,11,7.0,8.0,59,0.00,,---,0.00,VWS V14.01,2013-03-27 16:23:00,
2013-03-27 12:28:00,43.0,29.2,30.06,WNW,288,2.0,5.0,58,0.00,,---,0.00,VWS V14.01,2013-03-27 16:28:00,
2013-03-27 12:33:00,42.8,28.6,30.07,WNW,287,1.0,5.0,57,0.00,,---,0.00,VWS V14.01,2013-03-27 16:33:00,
2013-03-27 12:38:00,42.7,29.0,30.07,NNW,332,0.0,3.0,58,0.00,,---,0.00,VWS V14.01,2013-03-27 16:38:00,
2013-03-27 12:43:00,42.7,29.4,30.07,NNW,328,0.0,5.0,59,0.00,,---,0.00,VWS V14.01,2013-03-27 16:43:00,
2013-03-27 12:49:00,42.7,28.5,30.07,NNE,18,0.0,2.0,57,0.00,,---,0.00,VWS V14.01,2013-03-27 16:49:00,
2013-03-27 12:54:00,42.7,29.4,30.07,North,11,0.0,0.0,59,0.00,,---,0.00,VWS V14.01,2013-03-27 16:54:00,
2013-03-27 12:59:00,43.3,29.1,30.07,West,270,5.0,5.0,57,0.00,,---,0.00,VWS V14.01,2013-03-27 16:59:00,
2013-03-27 13:04:00,43.7,29.9,30.06,NE,38,0.0,3.0,58,0.00,,---,0.00,VWS V14.01,2013-03-27 17:04:00,
2013-03-27 13:09:00,43.9,29.7,30.07,West,270,4.0,6.0,57,0.00,,---,0.00,VWS V14.01,2013-03-27 17:09:00,
2013-03-27 13:14:00,43.3,29.1,30.06,North,356,3.0,3.0,57,0.00,,---,0.00,VWS V14.01,2013-03-27 17:14:00,
2013-03-27 13:19:00,42.9,28.3,30.07,NW,308,0.0,4.0,56,0.00,,---,0.00,VWS V14.01,2013-03-27 17:19:00,
2013-03-27 13:24:00,42.7,29.0,30.06,WNW,301,2.0,3.0,58,0.00,,---,0.00,VWS V14.01,2013-03-27 17:24:00,
2013-03-27 13:29:00,42.3,30.6,30.06,West,262,0.0,2.0,63,0.00,,---,0.00,VWS V14.01,2013-03-27 17:29:00,
2013-03-27 13:34:00,43.2,30.3,30.06,NNW,343,4.0,6.0,60,0.00,,---,0.00,VWS V14.01,2013-03-27 17:34:00,
2013-03-27 13:39:00,43.7,29.9,30.06,East,81,2.0,2.0,58,0.00,,---,0.00,VWS V14.01,2013-03-27 17:39:00,
2013-03-27 13:44:00,43.5,28.9,30.06,WNW,297,3.0,3.0,56,0.00,,---,0.00,VWS V14.01,2013-03-27 17:44:00,
2013-03-27 13:49:00,43.3,29.1,30.06,WNW,290,1.0,6.0,57,0.00,,---,0.00,VWS V14.01,2013-03-27 17:49:00,
2013-03-27 13:54:00,43.3,28.2,30.07,NE,47,1.0,4.0,55,0.00,,---,0.00,VWS V14.01,2013-03-27 17:54:00,
2013-03-27 13:59:00,43.3,28.7,30.06,NNW,329,1.0,2.0,56,0.00,,---,0.00,VWS V14.01,2013-03-27 17:59:00,
2013-03-27 14:04:00,43.3,28.7,30.06,ENE,60,2.0,3.0,56,0.00,,---,0.00,VWS V14.01,2013-03-27 18:04:00,
2013-03-27 14:09:00,43.0,28.0,30.06,WNW,297,0.0,5.0,55,0.00,,---,0.00,VWS V14.01,2013-03-27 18:09:00,
2013-03-27 14:14:00,42.9,28.7,30.06,NW,307,1.0,3.0,57,0.00,,---,0.00,VWS V14.01,2013-03-27 18:14:00,
2013-03-27 14:19:00,43.4,28.3,30.06,NW,319,2.0,8.0,55,0.00,,---,0.00,VWS V14.01,2013-03-27 18:19:00,
2013-03-27 14:24:00,43.4,28.3,30.06,WNW,297,2.0,4.0,55,0.00,,---,0.00,VWS V14.01,2013-03-27 18:24:00,
2013-03-27 14:29:00,42.8,29.1,30.07,NNE,13,0.0,3.0,58,0.00,,---,0.00,VWS V14.01,2013-03-27 18:29:00,
2013-03-27 14:34:00,41.8,29.8,30.07,NW,307,3.0,8.0,62,0.00,,---,0.00,VWS V14.01,2013-03-27 18:34:00,
2013-03-27 14:39:00,40.8,30.0,30.06,SE,144,0.0,2.0,65,0.00,,---,0.00,VWS V14.01,2013-03-27 18:39:00,
2013-03-27 14:44:00,41.1,29.9,30.06,North,3,2.0,3.0,64,0.00,,---,0.00,VWS V14.01,2013-03-27 18:44:00,
2013-03-27 14:49:00,41.7,29.3,30.06,NNE,20,2.0,2.0,61,0.00,,---,0.00,VWS V14.01,2013-03-27 18:49:00,
2013-03-27 14:54:00,42.1,29.6,30.06,NNE,27,0.0,2.0,61,0.00,,---,0.00,VWS V14.01,2013-03-27 18:54:00,
2013-03-27 14:59:00,42.9,28.7,30.06,NE,53,4.0,5.0,57,0.00,,---,0.00,VWS V14.01,2013-03-27 18:59:00,
2013-03-27 15:05:00,43.3,28.2,30.06,NE,41,3.0,3.0,55,0.00,,---,0.00,VWS V14.01,2013-03-27 19:05:00,
2013-03-27 15:10:00,43.1,28.0,30.06,NW,312,3.0,7.0,55,0.00,,---,0.00,VWS V14.01,2013-03-27 19:10:00,
2013-03-27 15:15:00,43.0,27.5,30.06,NNW,347,1.0,5.0,54,0.00,,---,0.00,VWS V14.01,2013-03-27 19:15:00,
2013-03-27 15:20:00,42.7,28.1,30.06,NNW,337,0.0,0.0,56,0.00,,---,0.00,VWS V14.01,2013-03-27 19:20:00,
2013-03-27 15:25:00,42.4,27.8,30.06,NW,306,3.0,4.0,56,0.00,,---,0.00,VWS V14.01,2013-03-27 19:25:00,
2013-03-27 15:30:00,42.6,27.6,30.06,NE,38,1.0,5.0,55,0.00,,---,0.00,VWS V14.01,2013-03-27 19:30:00,
2013-03-27 15:35:00,42.8,27.8,30.06,West,259,1.0,2.0,55,0.00,,---,0.00,VWS V14.01,2013-03-27 19:35:00,
2013-03-27 15:40:00,43.0,27.5,30.06,West,277,0.0,0.0,54,0.00,,---,0.00,VWS V14.01,2013-03-27 19:40:00,
2013-03-27 15:45:00,43.3,27.8,30.06,NW,307,2.0,4.0,54,0.00,,---,0.00,VWS V14.01,2013-03-27 19:45:00,
2013-03-27 15:50:00,43.2,27.2,30.06,WNW,285,6.0,8.0,53,0.00,,---,0.00,VWS V14.01,2013-03-27 19:50:00,
2013-03-27 15:55:00,42.7,26.8,30.06,WNW,293,0.0,1.0,53,0.00,,---,0.00,VWS V14.01,2013-03-27 19:55:00,
2013-03-27 16:00:00,42.2,26.3,30.05,NNW,329,1.0,1.0,53,0.00,,---,0.00,VWS V14.01,2013-03-27 20:00:00,
2013-03-27 16:05:00,42.2,26.3,30.05,South,172,0.0,2.0,53,0.00,,---,0.00,VWS V14.01,2013-03-27 20:05:00,
2013-03-27 16:11:00,42.2,25.9,30.05,North,359,0.0,0.0,52,0.00,,---,0.00,VWS V14.01,2013-03-27 20:11:00,
2013-03-27 16:16:00,42.5,27.0,30.05,SE,132,0.0,1.0,54,0.00,,---,0.00,VWS V14.01,2013-03-27 20:16:00,
2013-03-27 16:21:00,43.0,26.6,30.06,NW,311,1.0,4.0,52,0.00,,---,0.00,VWS V14.01,2013-03-27 20:21:00,
2013-03-27 16:26:00,43.5,26.6,30.06,North,11,0.0,1.0,51,0.00,,---,0.00,VWS V14.01,2013-03-27 20:26:00,
2013-03-27 16:32:00,43.8,26.9,30.06,NE,41,1.0,2.0,51,0.00,,---,0.00,VWS V14.01,2013-03-27 20:32:00,
2013-03-27 16:37:00,44.4,26.9,30.06,WNW,300,0.0,0.0,50,0.00,,---,0.00,VWS V14.01,2013-03-27 20:37:00,
2013-03-27 16:42:00,44.6,26.1,30.06,SSW,203,4.0,4.0,48,0.00,,---,0.00,VWS V14.01,2013-03-27 20:42:00,
2013-03-27 16:47:00,44.1,26.7,30.05,North,356,0.0,1.0,50,0.00,,---,0.00,VWS V14.01,2013-03-27 20:47:00,
2013-03-27 16:52:00,43.8,25.9,30.06,NW,316,2.0,4.0,49,0.00,,---,0.00,VWS V14.01,2013-03-27 20:52:00,
2013-03-27 16:57:00,43.3,25.9,30.06,NW,319,0.0,1.0,50,0.00,,---,0.00,VWS V14.01,2013-03-27 20:57:00,
2013-03-27 17:02:00,43.0,26.1,30.06,West,269,0.0,2.0,51,0.00,,---,0.00,VWS V14.01,2013-03-27 21:02:00,
2013-03-27 17:08:00,43.1,25.3,30.05,WNW,295,1.0,3.0,49,0.00,,---,0.00,VWS V14.01,2013-03-27 21:08:00,
2013-03-27 17:13:00,43.4,26.5,30.06,NNE,25,3.0,4.0,51,0.00,,---,0.00,VWS V14.01,2013-03-27 21:13:00,
2013-03-27 17:18:00,43.5,25.1,30.06,NE,37,2.0,3.0,48,0.00,,---,0.00,VWS V14.01,2013-03-27 21:18:00,
2013-03-27 17:23:00,43.3,25.4,30.06,NE,46,0.0,2.0,49,0.00,,---,0.00,VWS V14.01,2013-03-27 21:23:00,
2013-03-27 17:28:00,43.2,25.4,30.06,NNW,341,0.0,2.0,49,0.00,,---,0.00,VWS V14.01,2013-03-27 21:28:00,
2013-03-27 17:33:00,43.2,25.8,30.06,NNW,346,1.0,1.0,50,0.00,,---,0.00,VWS V14.01,2013-03-27 21:33:00,
2013-03-27 17:38:00,43.0,25.2,30.06,NW,314,1.0,2.0,49,0.00,,---,0.00,VWS V14.01,2013-03-27 21:38:00,
2013-03-27 17:43:00,42.7,25.9,30.06,East,84,1.0,2.0,51,0.00,,---,0.00,VWS V14.01,2013-03-27 21:43:00,
2013-03-27 17:49:00,42.6,24.8,30.06,NNW,338,2.0,3.0,49,0.00,,---,0.00,VWS V14.01,2013-03-27 21:49:00,
2013-03-27 17:54:00,42.5,25.7,30.06,NNW,340,0.0,0.0,51,0.00,,---,0.00,VWS V14.01,2013-03-27 21:54:00,
2013-03-27 17:59:00,42.6,25.8,30.06,South,176,1.0,2.0,51,0.00,,---,0.00,VWS V14.01,2013-03-27 21:59:00,
2013-03-27 18:04:00,42.5,25.7,30.06,NNW,328,2.0,3.0,51,0.00,,---,0.00,VWS V14.01,2013-03-27 22:04:00,
2013-03-27 18:09:00,42.3,25.5,30.06,SW,227,3.0,3.0,51,0.00,,---,0.00,VWS V14.01,2013-03-27 22:09:00,
2013-03-27 18:14:00,42.3,25.5,30.06,North,11,1.0,3.0,51,0.00,,---,0.00,VWS V14.01,2013-03-27 22:14:00,
2013-03-27 18:19:00,42.4,25.6,30.07,WNW,283,0.0,1.0,51,0.00,,---,0.00,VWS V14.01,2013-03-27 22:19:00,
2013-03-27 18:24:00,42.3,25.9,30.07,ENE,74,1.0,2.0,52,0.00,,---,0.00,VWS V14.01,2013-03-27 22:24:00,
2013-03-27 18:29:00,42.0,25.7,30.07,WNW,301,1.0,3.0,52,0.00,,---,0.00,VWS V14.01,2013-03-27 22:29:00,
2013-03-27 18:34:00,41.9,25.6,30.07,SW,226,1.0,2.0,52,0.00,,---,0.00,VWS V14.01,2013-03-27 22:34:00,
2013-03-27 18:39:00,41.7,25.4,30.07,NE,54,2.0,2.0,52,0.00,,---,0.00,VWS V14.01,2013-03-27 22:39:00,
2013-03-27 18:44:00,41.4,25.1,30.07,NW,318,0.0,2.0,52,0.00,,---,0.00,VWS V14.01,2013-03-27 22:44:00,
2013-03-27 18:50:00,41.1,25.7,30.07,North,7,2.0,2.0,54,0.00,,---,0.00,VWS V14.01,2013-03-27 22:50:00,
2013-03-27 18:55:00,41.1,25.3,30.08,NW,304,2.0,2.0,53,0.00,,---,0.00,VWS V14.01,2013-03-27 22:55:00,
2013-03-27 19:00:00,41.1,25.7,30.08,WNW,284,0.0,1.0,54,0.00,,---,0.00,VWS V14.01,2013-03-27 23:00:00,
2013-03-27 19:05:00,40.9,26.0,30.08,NE,37,1.0,2.0,55,0.00,,---,0.00,VWS V14.01,2013-03-27 23:05:00,
2013-03-27 19:10:00,40.8,25.9,30.08,NW,316,0.0,1.0,55,0.00,,---,0.00,VWS V14.01,2013-03-27 23:10:00,
2013-03-27 19:15:00,40.6,26.1,30.08,SW,233,3.0,3.0,56,0.00,,---,0.00,VWS V14.01,2013-03-27 23:15:00,
2013-03-27 19:20:00,40.4,26.0,30.08,WNW,291,0.0,1.0,56,0.00,,---,0.00,VWS V14.01,2013-03-27 23:20:00,
2013-03-27 19:25:00,40.0,25.6,30.08,NW,314,1.0,3.0,56,0.00,,---,0.00,VWS V14.01,2013-03-27 23:25:00,
2013-03-27 19:30:00,40.0,25.6,30.08,North,353,0.0,1.0,56,0.00,,---,0.00,VWS V14.01,2013-03-27 23:30:00,
2013-03-27 19:35:00,39.7,25.7,30.08,NW,325,0.0,0.0,57,0.00,,---,0.00,VWS V14.01,2013-03-27 23:35:00,
2013-03-27 19:40:00,39.4,25.9,30.09,WNW,284,0.0,1.0,58,0.00,,---,0.00,VWS V14.01,2013-03-27 23:40:00,
2013-03-27 19:45:00,39.1,25.6,30.09,NW,314,0.0,1.0,58,0.00,,---,0.00,VWS V14.01,2013-03-27 23:45:00,
2013-03-27 19:50:00,39.0,25.9,30.09,WNW,291,0.0,0.0,59,0.00,,---,0.00,VWS V14.01,2013-03-27 23:50:00,
2013-03-27 19:55:00,38.7,25.6,30.09,WNW,289,1.0,1.0,59,0.00,,---,0.00,VWS V14.01,2013-03-27 23:55:00,
2013-03-27 20:01:00,38.5,25.8,30.09,WNW,302,1.0,1.0,60,0.00,,---,0.00,VWS V14.01,2013-03-28 00:01:00,
2013-03-27 20:06:00,38.2,26.0,30.10,West,266,0.0,1.0,61,0.00,,---,0.00,VWS V14.01,2013-03-28 00:06:00,
2013-03-27 20:11:00,38.1,25.5,30.10,West,264,0.0,1.0,60,0.00,,---,0.00,VWS V14.01,2013-03-28 00:11:00,
2013-03-27 20:16:00,38.0,25.8,30.10,West,262,0.0,0.0,61,0.00,,---,0.00,VWS V14.01,2013-03-28 00:16:00,
2013-03-27 20:21:00,37.8,25.6,30.10,West,270,0.0,0.0,61,0.00,,---,0.00,VWS V14.01,2013-03-28 00:21:00,
2013-03-27 20:27:00,37.5,25.7,30.10,West,262,0.0,0.0,62,0.00,,---,0.00,VWS V14.01,2013-03-28 00:27:00,
2013-03-27 20:32:00,37.4,25.6,30.10,SW,229,0.0,0.0,62,0.00,,---,0.00,VWS V14.01,2013-03-28 00:32:00,
2013-03-27 20:37:00,37.2,25.8,30.10,WSW,238,0.0,0.0,63,0.00,,---,0.00,VWS V14.01,2013-03-28 00:37:00,
2013-03-27 20:42:00,37.1,26.1,30.10,West,271,0.0,0.0,64,0.00,,---,0.00,VWS V14.01,2013-03-28 00:42:00,
2013-03-27 20:47:00,36.9,25.9,30.11,WNW,284,0.0,1.0,64,0.00,,---,0.00,VWS V14.01,2013-03-28 00:47:00,
2013-03-27 20:52:00,37.0,26.0,30.11,WSW,258,0.0,1.0,64,0.00,,---,0.00,VWS V14.01,2013-03-28 00:52:00,
2013-03-27 20:57:00,36.9,26.2,30.11,SSW,204,0.0,1.0,65,0.00,,---,0.00,VWS V14.01,2013-03-28 00:57:00,
2013-03-27 21:02:00,37.0,26.3,30.11,WSW,250,0.0,0.0,65,0.00,,---,0.00,VWS V14.01,2013-03-28 01:02:00,
2013-03-27 21:07:00,37.1,26.1,30.11,WSW,242,0.0,0.0,64,0.00,,---,0.00,VWS V14.01,2013-03-28 01:07:00,
2013-03-27 21:12:00,37.1,26.1,30.11,SSW,208,0.0,0.0,64,0.00,,---,0.00,VWS V14.01,2013-03-28 01:12:00,
2013-03-27 21:17:00,37.0,26.0,30.12,WSW,239,0.0,1.0,64,0.00,,---,0.00,VWS V14.01,2013-03-28 01:17:00,
2013-03-27 21:22:00,36.9,25.9,30.12,WSW,246,0.0,1.0,64,0.00,,---,0.00,VWS V14.01,2013-03-28 01:22:00,
2013-03-27 21:27:00,36.9,26.2,30.12,WSW,248,0.0,0.0,65,0.00,,---,0.00,VWS V14.01,2013-03-28 01:27:00,
2013-03-27 21:33:00,36.9,26.2,30.12,West,265,0.0,0.0,65,0.00,,---,0.00,VWS V14.01,2013-03-28 01:33:00,
2013-03-27 21:38:00,36.9,26.2,30.12,West,267,0.0,0.0,65,0.00,,---,0.00,VWS V14.01,2013-03-28 01:38:00,
2013-03-27 21:43:00,36.9,26.2,30.12,West,281,0.0,0.0,65,0.00,,---,0.00,VWS V14.01,2013-03-28 01:43:00,
2013-03-27 21:48:00,36.9,26.2,30.12,WNW,294,0.0,1.0,65,0.00,,---,0.00,VWS V14.01,2013-03-28 01:48:00,
2013-03-27 21:53:00,36.9,26.2,30.12,SW,225,0.0,0.0,65,0.00,,---,0.00,VWS V14.01,2013-03-28 01:53:00,
2013-03-27 21:58:00,36.7,26.4,30.13,West,271,0.0,0.0,66,0.00,,---,0.00,VWS V14.01,2013-03-28 01:58:00,
2013-03-27 22:03:00,36.7,26.4,30.12,East,80,0.0,1.0,66,0.00,,---,0.00,VWS V14.01,2013-03-28 02:03:00,
2013-03-27 22:08:00,37.0,26.7,30.13,NW,312,0.0,0.0,66,0.00,,---,0.00,VWS V14.01,2013-03-28 02:08:00,
2013-03-27 22:13:00,37.2,26.5,30.12,NW,316,2.0,2.0,65,0.00,,---,0.00,VWS V14.01,2013-03-28 02:13:00,
2013-03-27 22:18:00,37.3,26.6,30.13,SW,215,0.0,0.0,65,0.00,,---,0.00,VWS V14.01,2013-03-28 02:18:00,
2013-03-27 22:24:00,37.2,26.9,30.13,West,277,1.0,2.0,66,0.00,,---,0.00,VWS V14.01,2013-03-28 02:24:00,
2013-03-27 22:29:00,37.1,27.2,30.13,WNW,297,0.0,3.0,67,0.00,,---,0.00,VWS V14.01,2013-03-28 02:29:00,
2013-03-27 22:34:00,37.2,27.6,30.12,West,271,1.0,1.0,68,0.00,,---,0.00,VWS V14.01,2013-03-28 02:34:00,
2013-03-27 22:39:00,37.2,28.0,30.12,NNW,327,0.0,2.0,69,0.00,,---,0.00,VWS V14.01,2013-03-28 02:39:00,
2013-03-27 22:44:00,37.0,28.1,30.12,West,264,0.0,1.0,70,0.00,,---,0.00,VWS V14.01,2013-03-28 02:44:00,
2013-03-27 22:50:00,36.7,28.2,30.12,WSW,253,0.0,0.0,71,0.00,,---,0.00,VWS V14.01,2013-03-28 02:50:00,
2013-03-27 22:55:00,36.3,28.5,30.12,WNW,297,1.0,1.0,73,0.00,,---,0.00,VWS V14.01,2013-03-28 02:55:00,
2013-03-27 23:00:00,36.1,28.3,30.12,West,259,0.0,0.0,73,0.00,,---,0.00,VWS V14.01,2013-03-28 03:00:00,
2013-03-27 23:05:00,35.8,28.3,30.12,North,5,0.0,1.0,74,0.00,,---,0.00,VWS V14.01,2013-03-28 03:05:00,
2013-03-27 23:10:00,35.4,28.3,30.12,SSW,208,0.0,2.0,75,0.00,,---,0.00,VWS V14.01,2013-03-28 03:10:00,
2013-03-27 23:15:00,35.5,28.4,30.12,NW,311,0.0,0.0,75,0.00,,---,0.00,VWS V14.01,2013-03-28 03:15:00,
2013-03-27 23:20:00,35.4,28.6,30.12,SW,236,1.0,2.0,76,0.00,,---,0.00,VWS V14.01,2013-03-28 03:20:00,
2013-03-27 23:25:00,35.3,28.5,30.12,NW,315,0.0,3.0,76,0.00,,---,0.00,VWS V14.01,2013-03-28 03:25:00,
2013-03-27 23:30:00,35.3,28.5,30.12,WNW,298,0.0,2.0,76,0.00,,---,0.00,VWS V14.01,2013-03-28 03:30:00,
2013-03-27 23:35:00,35.3,28.8,30.12,West,274,0.0,1.0,77,0.00,,---,0.00,VWS V14.01,2013-03-28 03:35:00,
2013-03-27 23:40:00,35.2,28.7,30.12,WNW,284,0.0,0.0,77,0.00,,---,0.00,VWS V14.01,2013-03-28 03:40:00,
2013-03-27 23:45:00,35.1,28.6,30.12,NW,311,0.0,0.0,77,0.00,,---,0.00,VWS V14.01,2013-03-28 03:45:00,
2013-03-27 23:50:00,35.0,28.5,30.12,NW,310,0.0,1.0,77,0.00,,---,0.00,VWS V14.01,2013-03-28 03:50:00,
2013-03-27 23:55:00,34.9,28.8,30.12,WNW,288,0.0,0.0,78,0.00,,---,0.00,VWS V14.01,2013-03-28 03:55:00,